WA6MEM Weather Reports


time (UTC)temp
F
wind
direction
speed
knots
gust
knots
rain 1hr
in
rain 24hr
in
rain mn
in
humidity
%
barometer
mb
20260906123016 68 312 0.0 0.0 0.00 0.00 0.00 57 1011.0
20260906122512 68 277 0.0 0.0 0.00 0.00 0.00 53 1011.0
20260906122008 68 306 0.0 0.0 0.00 0.00 0.00 57 1011.0
20260906121507 68 138 0.0 0.0 0.00 0.00 0.00 60 1011.0
20260906121007 69 138 0.0 0.0 0.00 0.00 0.00 51 1010.6
20260906120506 69 138 0.0 0.0 0.00 0.00 0.00 55 1010.6
20260906120005 70 127 0.0 0.0 0.00 0.00 0.00 57 1010.6
20260906115503 71 76 0.0 0.0 0.00 0.00 0.00 57 1010.3
20260906115001 71 53 0.0 0.0 0.00 0.00 0.00 49 1010.3
20260906114505 72 53 0.0 0.0 0.00 0.00 0.00 46 1010.3
20260906114002 72 53 0.0 0.0 0.00 0.00 0.00 41 1010.2
20260906113600 72 53 0.0 0.0 0.00 0.00 0.00 43 1010.2
20260906113100 72 53 0.0 0.0 0.00 0.00 0.00 44 1010.2
20260906112600 72 53 0.0 0.0 0.00 0.00 0.00 42 1010.3
20260906112100 72 53 0.0 0.0 0.00 0.00 0.00 37 1010.3
20260906111617 72 53 0.0 0.0 0.00 0.00 0.00 35 1010.3
20260906111059 72 53 0.0 0.0 0.00 0.00 0.00 36 1010.1
20260906110559 72 53 0.0 0.0 0.00 0.00 0.00 38 1010.1
20260906110100 72 53 0.0 0.0 0.00 0.00 0.00 40 1010.1
20260906105559 72 53 0.0 0.0 0.00 0.00 0.00 37 1010.1
20260906105102 72 53 0.0 0.0 0.00 0.00 0.00 38 1010.1
20260906104558 72 53 0.0 0.0 0.00 0.00 0.00 37 1010.1
20260906104057 72 53 0.0 0.0 0.00 0.00 0.00 38 1010.2
20260906103558 72 53 0.0 0.0 0.00 0.00 0.00 39 1010.2
20260906103057 72 53 0.0 0.0 0.00 0.00 0.00 39 1010.2
20260906102558 72 53 0.0 0.0 0.00 0.00 0.00 37 1010.2
20260906102057 72 53 0.0 0.0 0.00 0.00 0.00 38 1010.2
20260906101557 72 53 0.0 0.0 0.00 0.00 0.00 38 1010.2
20260906101056 72 53 0.0 0.0 0.00 0.00 0.00 41 1010.3
20260906100556 72 53 0.0 0.0 0.00 0.00 0.00 38 1010.3
20260906095556 72 53 0.0 0.0 0.00 0.00 0.00 38 1010.3
20260906095056 72 53 0.0 0.0 0.00 0.00 0.00 36 1010.3
20260906094559 72 53 0.0 0.0 0.00 0.00 0.00 37 1010.3
20260906094055 72 53 0.0 0.0 0.00 0.00 0.00 37 1010.3
20260906093555 72 53 0.0 0.0 0.00 0.00 0.00 37 1010.3
20260906093055 72 53 0.0 0.0 0.00 0.00 0.00 37 1010.3
20260906092556 72 53 0.0 0.0 0.00 0.00 0.00 39 1010.4
20260906092055 72 53 0.0 0.0 0.00 0.00 0.00 39 1010.4
20260906091553 72 53 0.0 0.0 0.00 0.00 0.00 37 1010.4
20260906091054 72 53 0.0 0.0 0.00 0.00 0.00 37 1010.3
20260906090553 72 53 0.0 0.0 0.00 0.00 0.00 38 1010.3
20260906090056 72 53 0.0 0.0 0.00 0.00 0.00 38 1010.3
20260906085554 71 53 0.0 0.0 0.00 0.00 0.00 38 1010.3
20260906085053 71 53 0.0 0.0 0.00 0.00 0.00 37 1010.3
20260906084557 71 53 0.0 0.0 0.00 0.00 0.00 38 1010.3
20260906084053 71 53 0.0 0.0 0.00 0.00 0.00 40 1010.4
20260906083552 71 53 0.0 0.0 0.00 0.00 0.00 37 1010.4
20260906083051 71 53 0.0 0.0 0.00 0.00 0.00 38 1010.4
20260906082550 71 53 0.0 0.0 0.00 0.00 0.00 38 1010.5
20260906082050 71 53 0.0 0.0 0.00 0.00 0.00 38 1010.5
20260906081550 71 53 0.0 0.0 0.00 0.00 0.00 37 1010.5
20260906081049 72 53 0.0 0.0 0.00 0.00 0.00 39 1010.7
20260906080550 72 53 0.0 0.0 0.00 0.00 0.00 38 1010.7
20260906080055 72 53 0.0 0.0 0.00 0.00 0.00 37 1010.7
20260906075553 72 53 0.0 0.0 0.00 0.00 0.00 37 1010.6
20260906075049 71 53 0.0 0.0 0.00 0.00 0.00 36 1010.6
20260906074551 71 53 0.0 0.0 0.00 0.00 0.00 36 1010.6
20260906074047 72 53 0.0 0.0 0.00 0.00 0.00 35 1010.8
20260906073547 72 53 0.0 0.0 0.00 0.00 0.00 37 1010.8
20260906073048 72 53 0.0 0.0 0.00 0.00 0.00 36 1010.8
20260906072546 72 53 0.0 0.0 0.00 0.00 0.00 36 1010.8
20260906072046 72 53 0.0 0.0 0.00 0.00 0.00 38 1010.8
20260906071546 72 53 0.0 0.0 0.00 0.00 0.00 37 1010.8
20260906071045 72 53 0.0 0.0 0.00 0.00 0.00 37 1010.6
20260906070547 72 53 0.0 0.0 0.00 0.00 0.00 36 1010.6
20260906070043 72 53 0.0 0.0 0.00 0.00 0.01 36 1010.6
20260906065544 72 53 0.0 0.0 0.00 0.00 0.01 36 1010.5
20260906065043 72 53 0.0 0.0 0.00 0.00 0.01 37 1010.5
20260906064542 72 53 0.9 0.0 0.00 0.00 0.01 37 1010.5
20260906064043 72 53 1.7 0.0 0.00 0.00 0.01 37 1010.4
20260906063546 72 53 1.7 0.0 0.00 0.00 0.01 37 1010.4
20260906063045 72 53 1.7 0.0 0.00 0.00 0.01 37 1010.4
20260906062541 73 49 0.9 0.0 0.00 0.00 0.01 36 1010.4
20260906062041 73 273 0.0 0.0 0.00 0.00 0.01 36 1010.4
20260906061541 73 273 0.9 0.0 0.00 0.00 0.01 37 1010.4
20260906061040 73 282 1.7 0.0 0.00 0.00 0.01 37 1010.6
20260906060541 74 279 1.7 0.0 0.00 0.00 0.01 37 1010.6
20260906060041 73 258 1.7 0.0 0.00 0.00 0.01 36 1010.6
20260906055541 73 266 2.6 0.0 0.00 0.00 0.01 37 1010.6
20260906055040 73 274 2.6 0.0 0.00 0.00 0.01 37 1010.6
20260906054558 73 279 1.7 0.0 0.00 0.00 0.01 37 1010.6
20260906054040 73 272 1.7 0.0 0.00 0.00 0.01 37 1010.9
20260906053538 73 305 2.6 0.0 0.00 0.00 0.01 37 1010.9
20260906053039 72 292 2.6 0.0 0.00 0.00 0.01 38 1010.9
20260906052539 72 296 2.6 0.0 0.00 0.00 0.01 39 1011.0
20260906052039 72 267 2.6 0.0 0.00 0.00 0.01 39 1011.0
20260906051538 72 242 2.6 0.0 0.00 0.00 0.01 39 1011.0
20260906051039 72 262 2.6 0.0 0.00 0.00 0.01 39 1011.2
20260906050541 72 279 2.6 0.0 0.00 0.00 0.01 39 1011.2
20260906050040 72 246 2.6 0.0 0.00 0.00 0.01 40 1011.2
20260906045539 72 248 1.7 0.0 0.00 0.00 0.01 40 1011.2
20260906045038 72 262 1.7 0.0 0.00 0.00 0.01 40 1011.2
20260906044538 71 266 1.7 0.0 0.00 0.00 0.01 40 1011.2
20260906044039 71 294 1.7 0.0 0.00 0.00 0.01 40 1011.2
20260906043537 71 273 1.7 0.0 0.00 0.00 0.01 41 1011.2
20260906043037 71 281 1.7 0.0 0.00 0.00 0.01 41 1011.2
20260906042537 71 290 1.7 0.0 0.00 0.00 0.01 42 1011.1
20260906042037 71 277 1.7 0.0 0.00 0.00 0.01 42 1011.1
20260906041536 71 304 1.7 0.0 0.00 0.00 0.01 42 1011.1
20260906041038 71 270 1.7 0.0 0.00 0.00 0.01 42 1010.9
20260906040537 71 286 1.7 0.0 0.00 0.00 0.01 44 1010.9
20260906040045 72 277 0.9 0.0 0.00 0.00 0.01 43 1010.9
20260906035537 72 276 0.9 0.0 0.00 0.00 0.01 41 1010.8
20260906035036 72 277 0.9 0.0 0.00 0.00 0.01 40 1010.8
20260906034547 72 274 0.9 0.0 0.00 0.00 0.01 39 1010.8
20260906034035 72 260 0.9 0.0 0.00 0.00 0.01 38 1010.8
20260906033535 72 266 0.9 0.0 0.00 0.00 0.01 39 1010.8
20260906033035 72 301 0.9 0.0 0.00 0.00 0.01 39 1010.8
20260906032537 72 269 0.0 0.0 0.00 0.00 0.01 38 1010.7
20260906032035 72 295 0.0 0.0 0.00 0.00 0.01 39 1010.7
20260906031601 72 295 0.0 0.0 0.00 0.00 0.01 39 1010.7
20260906031039 72 295 0.9 0.0 0.00 0.00 0.01 39 1010.7
20260906030535 72 278 0.9 0.0 0.00 0.00 0.01 38 1010.7
20260906030035 73 297 0.9 0.0 0.00 0.00 0.01 38 1010.7
20260906025534 73 250 0.9 0.0 0.00 0.00 0.01 39 1010.5
20260906025034 73 270 0.9 0.0 0.00 0.00 0.01 40 1010.5
20260906024553 73 277 1.7 0.0 0.00 0.00 0.01 41 1010.5
20260906024035 73 297 1.7 0.0 0.00 0.00 0.01 43 1010.6
20260906023532 73 236 2.6 0.0 0.00 0.00 0.01 44 1010.6
20260906023036 73 234 2.6 0.0 0.00 0.00 0.01 44 1010.6
20260906022531 72 278 2.6 0.0 0.00 0.00 0.01 46 1010.7
20260906022031 72 291 1.7 0.0 0.00 0.00 0.01 48 1010.7
20260906021531 72 255 1.7 0.0 0.00 0.00 0.01 54 1010.7
20260906021029 72 237 1.7 0.0 0.00 0.00 0.01 55 1010.9
20260906020534 72 260 0.9 0.0 0.00 0.00 0.01 56 1010.9
20260906020029 72 274 0.9 0.0 0.00 0.00 0.01 59 1010.9
20260906015530 73 202 1.7 0.0 0.00 0.00 0.01 62 1010.8
20260906015029 73 184 1.7 0.0 0.00 0.00 0.01 63 1010.8
20260906014529 73 226 1.7 0.0 0.00 0.00 0.01 64 1010.8
20260906014029 73 201 1.7 0.0 0.00 0.00 0.01 66 1010.8
20260906013528 73 199 1.7 0.0 0.00 0.00 0.01 64 1010.8
20260906013028 73 205 2.6 0.0 0.00 0.00 0.01 63 1010.8
20260906012528 74 207 2.6 0.0 0.00 0.00 0.01 67 1010.6
20260906012028 75 238 2.6 0.0 0.00 0.00 0.01 65 1010.6
20260906011529 76 259 1.7 0.0 0.00 0.00 0.01 61 1010.6
20260906011028 76 209 0.9 0.0 0.00 0.00 0.01 58 1010.5
20260906010529 76 187 0.9 0.0 0.00 0.00 0.01 56 1010.5
20260906010043 75 294 1.7 0.0 0.00 0.00 0.01 59 1010.5
20260906005527 75 260 1.7 0.0 0.00 0.00 0.01 64 1010.7
20260906005028 75 215 1.7 0.0 0.00 0.00 0.01 66 1010.7
20260906004526 76 235 1.7 0.0 0.00 0.00 0.01 65 1010.7
20260906004026 76 178 1.7 0.0 0.00 0.00 0.01 66 1010.6
20260906003527 76 213 0.9 0.0 0.00 0.00 0.01 66 1010.6
20260906003027 76 194 1.7 0.0 0.00 0.00 0.01 63 1010.6
20260906002527 77 148 1.7 0.0 0.00 0.00 0.01 63 1010.5
20260906002026 77 173 1.7 0.0 0.00 0.00 0.01 64 1010.5
20260906001533 77 167 1.7 0.0 0.00 0.00 0.01 62 1010.5
20260906001026 77 179 1.7 0.0 0.00 0.00 0.01 60 1010.5
20260906000526 77 166 1.7 0.0 0.00 0.00 0.01 58 1010.5
20260906000026 78 172 1.7 0.0 0.00 0.00 0.01 57 1010.5
20260905235526 78 170 1.7 0.0 0.00 0.00 0.01 55 1010.6
20260905235028 78 215 1.7 0.0 0.00 0.00 0.01 58 1010.6
20260905234525 79 154 2.6 0.0 0.00 0.00 0.01 56 1010.6
20260905234025 79 205 2.6 0.0 0.00 0.00 0.01 52 1010.7
20260905233525 78 170 2.6 0.0 0.00 0.00 0.01 53 1010.7
20260905233025 78 181 2.6 0.0 0.00 0.00 0.01 51 1010.7
20260905232525 78 207 2.6 0.0 0.00 0.00 0.01 54 1010.5
20260905232025 79 183 2.6 0.0 0.00 0.00 0.01 55 1010.5
20260905231525 79 173 1.7 0.0 0.00 0.00 0.01 53 1010.5
20260905231025 79 141 1.7 0.0 0.00 0.00 0.01 52 1010.6
20260905230524 79 186 1.7 0.0 0.00 0.00 0.01 50 1010.6
20260905230031 79 176 1.7 0.0 0.00 0.00 0.01 53 1010.6
20260905225526 79 169 1.7 0.0 0.00 0.00 0.01 51 1010.7
20260905225023 80 144 1.7 0.0 0.00 0.00 0.01 57 1010.7
20260905224523 80 148 2.6 0.0 0.00 0.00 0.01 51 1010.7
20260905224022 81 182 1.7 0.0 0.00 0.00 0.01 51 1010.9
20260905223522 80 169 1.7 0.0 0.00 0.00 0.01 50 1010.9
20260905223021 79 206 1.7 0.0 0.00 0.00 0.01 49 1010.9
20260905222522 79 170 1.7 0.0 0.00 0.00 0.01 51 1011.1
20260905222021 79 195 1.7 0.0 0.00 0.00 0.01 51 1011.1
20260905221520 79 152 1.7 0.0 0.00 0.00 0.01 49 1011.1
20260905221021 79 169 1.7 0.0 0.00 0.00 0.01 58 1011.1
20260905220520 79 174 2.6 0.0 0.00 0.00 0.01 56 1011.1
20260905220023 79 182 2.6 0.0 0.00 0.00 0.01 55 1011.1
20260905215520 79 170 2.6 0.0 0.00 0.00 0.01 61 1011.1
20260905215020 80 155 2.6 0.0 0.00 0.00 0.01 61 1011.1
20260905214519 80 360 1.7 0.0 0.00 0.00 0.01 49 1011.1
20260905214018 80 212 1.7 0.0 0.00 0.00 0.01 55 1011.4
20260905213517 79 201 2.6 0.0 0.00 0.00 0.01 61 1011.4
20260905213016 79 206 2.6 0.0 0.00 0.00 0.01 59 1011.4
20260905212515 79 133 2.6 0.0 0.00 0.00 0.01 61 1011.5
20260905212013 78 172 2.6 0.0 0.00 0.00 0.01 60 1011.5
20260905211539 78 157 2.6 0.0 0.00 0.00 0.01 60 1011.5
20260905211014 78 206 2.6 0.0 0.00 0.00 0.01 61 1011.6
20260905210514 78 161 2.6 0.0 0.00 0.00 0.01 64 1011.6
20260905210013 78 177 1.7 0.0 0.00 0.00 0.01 66 1011.6
20260905205513 78 211 1.7 0.0 0.00 0.00 0.01 65 1011.7
20260905205013 78 143 1.7 0.0 0.00 0.00 0.01 67 1011.7
20260905204512 77 169 2.6 0.0 0.00 0.00 0.01 69 1011.7
20260905204015 78 176 2.6 0.0 0.00 0.00 0.01 70 1011.7
20260905203511 78 153 2.6 0.0 0.00 0.00 0.01 70 1011.7
20260905203011 78 165 1.7 0.0 0.00 0.00 0.01 68 1011.7
20260905202510 78 157 1.7 0.0 0.00 0.00 0.01 67 1011.8
20260905202009 77 107 1.7 0.0 0.00 0.00 0.01 69 1011.8
20260905201509 76 238 2.6 0.0 0.00 0.00 0.01 70 1011.8
20260905201008 75 166 1.7 0.0 0.00 0.00 0.01 72 1012.3
20260905200510 75 229 1.7 0.0 0.00 0.00 0.01 69 1012.3
20260905200009 75 206 2.6 0.0 0.00 0.00 0.01 74 1012.3
20260905195507 75 211 2.6 0.0 0.00 0.00 0.01 76 1012.4
20260905195009 75 219 2.6 0.0 0.00 0.00 0.01 76 1012.4
20260905194507 75 167 1.7 0.0 0.00 0.00 0.01 76 1012.4
20260905194007 75 155 1.7 0.0 0.00 0.00 0.01 77 1012.6
20260905193506 75 210 2.6 0.0 0.00 0.00 0.01 75 1012.6
20260905193006 75 194 2.6 0.0 0.00 0.00 0.01 73 1012.6
20260905192506 76 175 2.6 0.0 0.00 0.00 0.01 74 1012.5
20260905192006 76 200 2.6 0.0 0.00 0.00 0.01 73 1012.5
20260905191507 77 149 1.7 0.0 0.00 0.00 0.01 72 1012.5
20260905191006 77 158 1.7 0.0 0.00 0.00 0.01 71 1012.6
20260905190505 77 158 1.7 0.0 0.00 0.00 0.01 72 1012.6
20260905190006 77 168 1.7 0.0 0.00 0.00 0.01 70 1012.6
20260905185505 77 194 1.7 0.0 0.00 0.00 0.01 72 1012.8
20260905185005 77 157 1.7 0.0 0.00 0.00 0.01 69 1012.8
20260905184502 77 116 0.9 0.0 0.00 0.00 0.01 70 1012.8
20260905184002 75 136 0.9 0.0 0.00 0.00 0.01 61 1012.8
20260905183600 75 360 0.9 0.0 0.00 0.00 0.01 77 1012.8
20260905183059 75 186 0.9 0.0 0.00 0.00 0.01 78 1012.8
20260905182558 74 139 1.7 0.0 0.00 0.00 0.01 79 1012.9
20260905182057 74 190 1.7 0.0 0.00 0.00 0.01 79 1012.9
20260905181557 74 215 1.7 0.0 0.00 0.00 0.01 79 1012.9
20260905181056 74 192 1.7 0.0 0.00 0.00 0.01 79 1012.9
20260905180557 74 157 1.7 0.0 0.00 0.00 0.01 78 1012.9
20260905180103 74 197 1.7 0.0 0.00 0.00 0.01 79 1012.9
20260905175559 74 157 1.7 0.0 0.00 0.00 0.01 78 1012.9
20260905175055 74 159 1.7 0.0 0.00 0.00 0.01 79 1012.9
20260905174555 73 207 1.7 0.0 0.00 0.00 0.01 78 1012.9
20260905174054 73 187 1.7 0.0 0.00 0.00 0.01 81 1012.7
20260905173551 73 127 0.9 0.0 0.00 0.00 0.01 80 1012.7
20260905173100 72 176 0.9 0.0 0.00 0.00 0.01 81 1012.7
20260905172550 72 223 1.7 0.0 0.00 0.00 0.01 81 1012.7
20260905172050 71 190 1.7 0.0 0.00 0.00 0.01 82 1012.7
20260905171547 71 144 0.9 0.0 0.00 0.00 0.01 81 1012.7
20260905171046 71 217 0.9 0.0 0.00 0.00 0.01 83 1012.9
20260905170546 71 163 1.7 0.0 0.00 0.00 0.01 83 1012.9
20260905170045 71 155 1.7 0.0 0.00 0.00 0.01 83 1012.9
20260905165544 71 153 1.7 0.0 0.00 0.00 0.01 83 1012.8
20260905165045 70 181 0.9 0.0 0.00 0.00 0.01 85 1012.8
20260905164543 70 188 0.9 0.0 0.00 0.00 0.01 85 1012.8
20260905164040 70 161 0.9 0.0 0.00 0.00 0.01 86 1012.6
20260905163540 69 146 0.9 0.0 0.00 0.00 0.01 86 1012.6
20260905163040 69 198 0.9 0.0 0.00 0.00 0.01 87 1012.6
20260905162540 69 168 0.9 0.0 0.00 0.00 0.01 87 1012.5
20260905162038 69 159 0.9 0.0 0.00 0.00 0.01 88 1012.5
20260905161537 68 188 0.9 0.0 0.00 0.00 0.01 89 1012.5
20260905161036 68 127 0.9 0.0 0.00 0.00 0.01 89 1012.5
20260905160534 68 150 0.0 0.0 0.00 0.00 0.01 90 1012.5
20260905160035 67 186 0.0 0.0 0.00 0.00 0.01 91 1012.5
20260905155533 67 186 0.0 0.0 0.00 0.00 0.01 92 1012.6
20260905155032 66 194 0.9 0.0 0.00 0.00 0.01 92 1012.6
20260905154534 66 107 0.9 0.0 0.00 0.00 0.01 92 1012.6
20260905154032 65 44 0.9 0.0 0.00 0.00 0.01 93 1012.5
20260905153527 65 78 1.7 0.0 0.00 0.00 0.01 94 1012.5
20260905153026 64 86 1.7 0.0 0.00 0.00 0.01 95 1012.5
20260905152525 64 355 2.6 0.0 0.00 0.00 0.01 96 1012.2
20260905152027 64 46 2.6 0.0 0.00 0.00 0.01 96 1012.2
20260905151523 63 11 2.6 0.0 0.00 0.00 0.01 97 1012.2
20260905151023 63 355 1.7 0.0 0.00 0.00 0.01 97 1012.2
20260905150521 63 20 2.6 0.0 0.00 0.00 0.01 97 1012.2
20260905150021 62 20 2.6 0.0 0.00 0.00 0.01 97 1012.2
20260905145522 62 14 1.7 0.0 0.00 0.00 0.01 97 1012.3
20260905145020 61 12 1.7 0.0 0.00 0.00 0.01 97 1012.3
20260905144519 61 5 0.9 0.0 0.00 0.00 0.01 97 1012.3
20260905144018 61 71 0.0 0.0 0.00 0.00 0.01 97 1012.3
20260905143519 61 72 0.0 0.0 0.00 0.00 0.01 97 1012.3
20260905143022 61 72 0.0 0.0 0.00 0.00 0.01 97 1012.3
20260905142518 60 72 0.0 0.0 0.00 0.00 0.01 97 1012.2
20260905142021 60 71 0.0 0.0 0.00 0.00 0.01 97 1012.2
20260905141525 60 71 0.0 0.0 0.00 0.00 0.01 97 1012.2
20260905141021 60 71 0.0 0.0 0.00 0.00 0.01 97 1011.9
20260905140520 60 72 0.0 0.0 0.00 0.00 0.01 97 1011.9
20260905140018 59 72 0.0 0.0 0.00 0.00 0.01 97 1011.9
20260905135517 59 71 0.0 0.0 0.00 0.00 0.01 97 1011.7
20260905135017 59 71 0.0 0.0 0.00 0.00 0.01 97 1011.7
20260905134517 59 72 0.0 0.0 0.00 0.00 0.01 97 1011.7
20260905134019 59 72 0.0 0.0 0.00 0.00 0.01 97 1011.5
20260905133516 59 72 0.0 0.0 0.00 0.00 0.01 97 1011.5
20260905133016 59 71 0.0 0.0 0.00 0.00 0.01 97 1011.5
20260905132517 59 71 0.0 0.0 0.00 0.00 0.01 97 1011.7
20260905132017 59 72 0.0 0.0 0.00 0.00 0.01 97 1011.7
20260905131519 59 72 0.0 0.0 0.00 0.00 0.01 97 1011.7
20260905131015 59 71 0.0 0.0 0.00 0.00 0.01 97 1011.2
20260905130515 59 71 0.0 0.0 0.00 0.00 0.01 97 1011.2
20260905130014 59 72 0.0 0.0 0.00 0.00 0.01 97 1011.2
20260905125514 59 71 0.0 0.0 0.00 0.00 0.01 97 1011.2
20260905125015 59 71 0.0 0.0 0.00 0.00 0.01 97 1011.2
20260905124517 59 72 0.0 0.0 0.00 0.00 0.01 97 1011.2
20260905124015 59 71 0.0 0.0 0.00 0.00 0.01 97 1011.1
20260905123514 59 71 0.0 0.0 0.00 0.00 0.01 97 1011.1